Theta_e
291 291 291 291 291 291 291 291 291 291 290 290 289 289 289 289 289 288 288 288 288 288 288 288 288 288 288 287 287 287 287 287 287 287 287 287 287 287 287 287 287 286 286 286 286 286 286 286 286 286 286 286 286 286 286 286 286 286 286 286 286 286 286 285 284 285 286 286 286 287 288 288 288 288 288 288 288 288 288 288 288 289 289 289 289
291 291 291 291 291 291 291 291 291 290 290 289 289 289 288 288 288 288 288 288 288 288 288 288 288 288 287 287 287 287 287 287 287 286 286 286 286 286 286 286 286 286 286 286 286 286 286 286 286 286 286 286 286 286 286 286 286 286 286 286 286 286 286 285 284 284 285 286 286 286 287 287 287 288 288 288 288 288 288 288 288 288 288 289 289
291 291 291 291 291 291 291 291 290 290 289 289 289 288 288 288 288 288 288 288 288 288 288 288 287 287 287 287 287 286 286 286 286 285 285 285 285 285 285 285 285 285 285 285 286 285 285 285 286 285 285 285 286 285 285 286 285 285 286 286 285 286 285 284 283 283 284 285 285 285 285 286 286 287 287 287 287 288 288 288 288 288 288 288 288
291 291 291 291 291 291 291 290 290 290 289 289 288 288 288 288 288 288 288 288 287 287 287 287 287 287 287 286 286 286 285 285 285 285 285 285 285 285 285 285 285 285 285 285 285 285 285 285 285 285 285 285 285 285 285 285 285 285 285 285 285 285 285 283 282 282 282 283 284 284 284 284 285 286 286 286 287 287 287 288 288 287 287 288 288
291 291 291 291 291 290 290 290 290 289 289 288 288 288 288 288 288 288 287 287 287 287 287 287 287 286 286 286 285 285 285 285 285 284 284 284 284 284 285 285 285 285 285 285 285 284 284 284 284 284 285 285 285 285 285 285 285 285 285 285 284 284 284 283 282 281 281 282 283 284 283 283 283 284 285 285 286 286 287 287 287 287 287 287 287
291 291 291 291 290 290 290 290 290 289 289 288 288 288 288 288 287 287 287 287 287 287 287 287 286 286 286 285 285 284 284 284 284 284 284 284 284 284 284 284 284 284 284 284 284 284 284 284 284 284 284 284 285 284 284 284 284 284 284 284 283 282 282 283 282 281 280 281 282 283 283 282 282 283 283 284 284 285 286 286 286 286 287 287 287
291 291 290 290 290 290 290 290 290 290 289 289 288 288 287 287 287 287 287 287 287 287 287 287 286 286 285 285 284 284 284 284 284 284 284 284 284 284 284 284 284 284 284 284 283 283 283 283 284 284 284 284 284 283 283 283 283 282 282 282 281 281 281 281 280 280 280 280 281 281 282 282 282 282 282 283 283 284 284 285 285 285 286 286 286
291 290 290 290 290 290 290 290 290 289 289 288 288 287 287 287 287 287 287 287 287 287 287 286 286 285 284 284 284 283 284 283 283 283 283 284 284 284 284 284 283 283 283 283 283 283 283 283 283 283 283 283 282 282 281 281 280 281 280 279 279 279 279 279 278 278 278 279 279 280 281 281 281 282 282 283 283 283 283 284 284 284 285 285 285
291 291 290 290 290 290 290 290 290 289 289 288 288 288 287 287 287 287 286 286 286 286 286 286 285 284 283 283 283 283 283 283 283 283 283 283 283 283 283 283 283 283 282 282 283 283 283 283 283 283 282 282 281 280 280 279 279 279 279 277 276 277 277 276 276 277 278 278 279 279 280 280 280 281 282 282 282 283 283 283 283 284 284 284 284
291 291 290 290 290 290 290 290 289 289 288 288 288 288 287 287 287 286 286 286 286 286 285 284 284 283 283 283 283 283 283 283 283 283 283 282 282 282 282 282 282 282 282 282 283 283 282 282 282 282 281 281 280 280 279 279 278 278 277 276 275 275 275 275 275 276 277 278 278 279 279 280 280 281 281 281 282 282 283 283 283 283 284 284 284
291 291 291 291 290 290 290 289 289 289 288 288 288 288 287 287 287 286 286 286 286 285 284 283 283 283 283 283 283 283 283 283 283 282 282 282 281 281 281 281 282 282 282 282 282 282 281 281 280 280 280 279 279 279 278 278 278 277 276 275 274 274 274 274 274 275 276 276 277 277 278 279 279 280 280 281 282 282 283 283 283 284 284 284 284
291 291 291 291 290 290 289 289 288 288 288 288 288 287 287 287 286 286 286 286 285 284 283 283 283 283 283 283 283 283 283 282 282 282 281 281 281 281 281 281 281 281 281 281 281 280 280 279 279 279 278 278 278 277 277 277 276 275 275 273 272 273 273 274 274 275 275 276 276 277 277 278 278 278 279 279 280 280 281 281 282 282 283 283 283
291 291 291 290 290 290 289 288 288 288 288 288 287 287 287 287 286 286 286 285 284 283 283 282 282 282 283 283 283 283 283 282 282 281 281 280 280 280 280 281 281 281 280 280 279 279 278 278 278 278 277 277 276 276 276 275 274 273 272 271 271 272 272 273 273 274 275 275 275 275 276 276 277 277 278 278 278 279 279 279 279 280 281 281 281
291 291 291 290 289 289 289 288 288 288 288 287 287 287 287 286 286 286 285 285 284 283 282 282 282 283 283 283 283 283 282 282 281 280 280 280 280 280 280 280 280 280 279 279 278 277 277 277 277 277 276 276 275 275 275 274 273 271 271 271 271 272 272 272 273 273 274 274 274 274 275 275 275 276 276 277 277 278 278 279 279 280 280 280 281
291 291 290 290 289 289 288 288 288 287 287 287 287 287 286 286 286 285 285 284 283 282 282 282 282 282 283 283 282 282 282 281 280 280 280 280 280 279 279 279 279 279 278 278 277 277 276 276 276 275 275 275 275 274 273 272 271 271 271 272 273 273 273 273 273 273 273 274 274 275 275 275 276 276 277 277 277 278 278 279 279 279 280 280 281
291 290 290 289 289 288 288 288 287 287 287 287 287 286 286 285 285 285 284 283 282 282 282 282 282 282 282 282 282 282 281 280 280 280 280 279 279 279 279 279 278 278 277 277 276 276 275 275 274 274 274 274 274 274 273 272 272 272 273 273 273 273 273 273 273 274 274 274 274 275 275 275 276 276 277 277 278 278 278 278 279 279 279 280 280
290 290 289 289 288 288 288 287 287 287 287 287 286 286 285 285 285 284 283 282 282 282 282 282 282 282 282 282 281 281 280 280 279 279 279 279 279 279 278 277 277 276 276 276 275 274 274 273 273 272 273 274 274 273 273 273 273 273 274 273 273 273 273 274 274 275 275 275 275 275 275 276 276 276 276 277 277 277 277 277 277 278 279 279 279
290 289 289 288 288 288 287 287 287 287 287 286 286 285 285 285 284 283 282 282 282 282 282 282 282 282 281 281 280 280 280 279 279 279 279 279 278 278 277 276 276 276 275 274 274 273 272 272 272 272 273 274 273 273 273 274 274 274 274 274 274 274 274 275 275 275 275 276 276 276 276 276 276 276 276 276 276 277 277 277 277 277 277 277 277
289 288 288 288 288 288 287 287 287 286 286 286 285 285 285 284 283 282 281 282 282 282 282 282 282 281 281 280 279 279 279 279 279 279 279 278 277 276 276 275 275 275 274 273 272 272 271 271 271 272 273 273 273 273 274 275 275 275 275 275 275 275 275 275 276 276 276 276 276 276 276 276 276 276 276 276 276 276 276 276 276 276 276 276 276
288 288 288 288 288 287 287 287 286 286 286 285 285 285 284 283 282 281 281 281 282 282 282 282 281 281 280 279 279 278 278 279 279 278 278 278 276 275 275 275 275 274 273 272 271 271 271 270 271 272 273 273 273 274 275 276 276 276 276 275 275 275 276 276 276 276 276 276 276 276 275 275 275 275 275 275 275 275 275 274 274 274 275 275 275
288 288 288 288 287 287 287 286 286 286 285 285 285 284 283 282 281 281 281 281 282 282 281 281 280 280 279 279 278 278 278 278 278 278 278 277 275 275 274 274 274 273 272 271 271 271 271 270 271 272 273 274 274 274 275 276 276 276 276 276 276 276 276 276 276 276 276 275 275 275 275 275 275 275 275 275 275 275 274 274 274 274 274 274 275
288 288 288 287 287 287 286 286 286 285 285 285 285 284 282 281 281 281 281 281 281 281 280 280 279 279 279 278 278 277 277 278 278 278 277 276 275 275 274 273 272 271 271 271 271 271 271 271 271 272 273 274 275 275 276 276 276 276 276 276 276 276 276 276 275 275 275 274 274 275 275 276 276 276 276 276 276 275 275 275 274 274 274 274 274
288 288 287 287 287 286 286 285 285 285 285 285 284 283 282 281 281 281 281 281 281 280 279 279 279 278 278 278 277 277 277 277 277 277 277 276 275 274 273 272 271 270 271 271 271 271 271 271 271 272 273 274 275 276 276 276 276 276 276 275 276 275 275 275 275 274 274 274 275 275 276 276 276 276 276 276 275 275 275 275 275 275 274 274 274
288 287 287 287 286 286 285 285 285 285 285 284 284 282 281 280 280 281 280 280 280 279 279 278 278 278 278 278 277 277 277 277 277 277 277 276 275 274 273 272 271 271 271 271 271 271 271 271 272 273 274 274 275 275 276 276 275 275 275 275 275 275 275 274 274 274 274 275 275 275 276 276 276 275 275 275 274 274 275 275 275 275 275 275 275
287 287 287 286 286 285 285 285 285 285 284 284 283 281 280 280 280 280 280 279 279 278 278 277 277 277 277 277 277 277 277 277 277 277 276 275 274 274 273 271 270 271 271 271 271 271 272 272 273 274 274 274 274 274 274 274 274 274 274 274 274 274 274 274 274 274 275 275 275 276 276 277 276 275 275 274 273 274 274 274 274 274 274 274 274
287 287 286 286 285 285 285 284 284 284 284 283 282 281 280 280 280 280 279 278 278 277 277 277 276 276 276 276 276 277 277 277 277 276 275 274 274 273 271 270 270 271 271 271 272 272 272 273 273 273 273 273 273 273 273 273 273 274 274 274 274 274 274 274 274 274 275 275 275 276 276 277 276 276 275 274 274 275 274 273 272 272 272 272 272
287 286 286 286 285 285 284 284 284 284 283 282 281 280 280 280 280 279 278 277 277 277 276 276 276 275 275 275 276 276 276 276 276 275 274 274 273 271 270 270 270 271 271 271 272 272 272 272 272 272 273 273 273 273 273 273 274 274 274 274 274 274 274 274 274 274 274 275 275 275 276 276 276 276 276 275 275 275 275 273 272 272 272 271 271
287 286 286 285 285 284 284 284 284 283 282 281 280 280 279 279 279 278 277 277 276 276 276 276 275 275 275 275 276 276 276 276 275 274 273 272 271 270 270 271 271 271 271 271 271 272 272 272 272 273 273 273 273 273 273 274 274 274 274 274 274 274 274 274 274 274 274 274 274 275 275 275 276 276 275 275 275 275 274 273 273 273 272 272 272
287 286 286 285 284 284 284 284 284 283 282 280 280 279 279 278 278 277 276 276 276 276 275 275 275 274 274 274 274 274 274 274 274 272 271 270 270 270 271 271 271 271 271 272 272 273 273 273 273 273 273 273 273 273 273 273 273 274 274 274 274 274 274 274 274 274 274 274 274 274 274 274 274 275 274 274 274 274 274 273 273 273 273 272 272
286 286 286 285 284 284 284 284 283 282 281 280 279 279 278 277 276 276 276 276 275 275 275 274 273 273 273 273 273 273 273 273 272 272 271 270 270 270 270 270 271 271 272 272 273 273 273 273 273 273 272 272 272 272 272 272 272 272 273 273 273 273 273 273 273 273 273 274 273 273 273 274 274 274 274 274 274 274 274 274 274 273 273 273 272
286 286 285 284 284 284 283 283 282 281 280 279 279 278 277 276 275 275 275 275 274 274 274 273 273 272 272 272 273 273 272 272 271 271 270 270 270 270 270 271 272 272 271 272 272 272 272 272 272 272 272 271 271 270 270 270 270 271 271 272 272 272 272 272 272 272 273 273 273 274 274 274 274 274 274 274 274 274 274 274 274 274 273 273 273
286 285 284 284 284 283 283 282 280 279 279 278 278 277 276 276 275 274 274 274 274 274 274 273 273 273 273 272 272 272 272 272 272 271 269 269 270 271 271 271 272 271 271 272 272 272 272 271 271 271 271 270 270 270 269 269 269 270 270 270 271 272 272 272 272 272 272 273 273 273 273 273 274 274 274 274 274 274 274 274 274 274 274 273 273
285 284 284 284 283 282 281 280 279 278 278 278 277 276 275 275 275 274 274 274 274 273 273 273 273 273 273 272 272 271 272 272 272 270 268 269 271 271 271 271 271 271 271 272 272 272 272 271 271 271 270 270 269 269 269 269 269 269 269 270 270 271 271 272 272 272 272 272 272 273 273 273 273 273 273 274 274 274 274 275 275 275 274 274 274
285 284 283 283 282 281 280 279 278 278 277 277 276 275 274 274 274 274 274 274 274 274 273 272 272 272 272 272 272 271 271 272 271 269 269 270 271 271 271 271 271 271 271 271 272 272 272 271 271 271 270 270 269 269 269 269 269 269 269 270 270 270 271 271 271 272 272 272 272 272 272 273 273 272 273 274 274 274 275 275 275 275 275 275 275
284 284 283 282 281 280 279 278 277 277 276 276 275 274 274 273 273 273 273 274 274 274 273 272 272 272 272 272 272 271 271 271 271 270 270 271 271 271 271 271 271 271 271 271 271 271 271 271 271 270 270 270 269 269 269 269 269 269 269 269 269 270 270 271 271 271 271 272 272 272 272 273 273 273 273 274 274 275 275 275 275 275 275 275 276
284 283 282 281 280 279 278 278 277 276 276 275 274 274 273 273 272 272 273 273 273 274 273 273 272 272 272 272 272 271 271 271 270 270 270 270 271 271 271 271 272 272 272 271 271 271 270 270 270 270 270 270 269 269 269 269 269 269 269 268 268 269 269 269 269 270 270 271 271 272 272 272 273 273 274 274 274 275 275 276 276 276 276 276 276
283 282 281 280 279 278 278 277 276 275 275 274 274 273 273 272 272 272 273 273 273 273 273 273 272 272 271 272 272 271 271 271 270 270 270 270 270 271 271 271 271 272 272 271 271 271 271 270 270 270 270 270 270 269 269 269 269 269 268 268 268 268 268 268 268 269 270 270 271 271 271 272 273 273 273 274 274 275 276 276 277 277 277 277 277
282 281 280 279 278 278 277 276 275 275 274 274 273 273 272 272 272 272 272 272 272 273 273 272 272 272 271 271 272 272 271 271 271 270 270 270 270 270 271 271 271 271 271 271 271 271 271 271 270 270 270 270 270 270 270 270 269 268 268 267 267 267 268 268 268 269 269 270 270 270 271 272 272 273 273 274 274 275 276 276 277 277 277 277 278
281 280 279 278 278 277 276 275 274 274 273 273 273 272 272 272 272 272 272 272 272 272 272 272 272 272 271 271 271 271 271 271 271 270 270 270 270 270 270 271 271 271 271 271 271 271 271 271 271 271 270 270 270 270 270 270 269 268 268 267 268 268 268 268 269 269 269 269 270 270 271 271 272 272 273 274 274 274 275 276 276 277 277 277 278
279 278 278 277 277 276 275 274 274 273 273 273 272 272 272 272 272 272 272 272 272 272 272 272 272 271 271 271 271 271 271 271 270 270 270 270 270 269 270 270 270 270 270 270 270 270 270 270 271 271 270 270 270 270 270 270 270 269 268 268 268 268 268 268 269 269 269 270 270 270 270 271 271 272 273 273 274 274 275 275 276 276 277 277 278
278 278 277 276 275 275 274 274 273 273 272 272 272 272 271 271 272 272 272 271 271 271 271 271 271 271 271 271 270 270 270 270 269 269 269 269 269 269 269 269 269 269 270 270 270 270 270 270 270 270 270 270 270 270 270 270 270 269 268 268 268 268 268 269 269 269 270 270 270 270 270 271 271 272 272 273 274 274 275 275 276 276 277 277 278
277 277 276 275 275 274 273 273 272 272 272 272 272 271 271 271 271 271 271 271 271 271 271 271 271 271 270 270 270 270 269 269 269 269 269 269 269 269 269 269 269 269 269 270 270 270 270 270 270 270 270 270 270 270 270 270 270 270 269 268 267 267 268 268 269 269 270 270 270 270 271 271 271 271 272 273 273 274 274 275 275 276 276 277 277
276 275 275 274 274 273 273 272 272 272 272 272 271 271 271 271 271 271 271 271 271 271 270 270 270 270 270 270 270 270 269 269 269 269 269 269 269 269 269 269 269 269 269 269 270 270 270 270 270 270 270 270 269 270 270 270 270 270 269 268 267 267 267 268 269 269 269 270 270 271 271 271 271 271 272 272 273 273 274 274 275 275 276 276 276
275 275 274 274 273 273 272 272 272 272 272 271 271 270 270 270 270 270 270 270 270 270 270 270 270 270 270 270 270 269 269 269 269 269 269 269 269 269 269 270 269 269 269 269 269 270 270 270 270 270 270 270 270 269 269 269 269 269 269 268 267 267 267 268 268 268 268 269 270 270 271 271 271 271 272 272 272 273 273 274 274 274 275 275 276
274 274 273 273 273 272 272 272 272 271 271 271 270 270 270 270 270 270 270 270 270 270 270 270 270 270 270 270 269 269 269 269 269 269 269 269 269 270 270 270 270 270 269 269 269 269 269 270 270 270 270 270 270 270 270 269 269 269 269 269 268 267 267 267 268 268 268 269 269 270 271 271 271 271 271 272 272 272 273 273 273 274 274 274 275
273 273 273 273 272 272 272 271 271 271 271 270 270 270 270 270 270 269 269 269 269 269 269 269 269 269 269 269 269 269 269 269 269 269 269 269 269 270 270 270 270 269 269 269 269 269 269 269 270 270 270 270 270 270 270 270 269 269 270 269 269 268 267 267 268 268 268 269 269 270 270 271 271 271 271 271 271 272 272 272 273 273 273 273 274
273 272 272 272 272 271 271 271 271 271 271 270 270 270 270 269 269 269 269 269 269 269 269 269 269 269 269 269 269 269 269 269 269 269 269 269 269 269 270 270 270 270 270 269 269 269 269 269 269 270 270 270 270 270 270 270 269 270 270 270 269 268 268 267 268 268 268 269 269 269 270 271 271 271 271 271 271 272 272 272 272 272 272 272 273
272 272 271 271 271 271 271 271 271 270 270 270 270 270 269 269 269 268 269 269 269 269 269 269 269 269 269 269 269 268 268 269 269 269 269 269 269 269 269 269 270 270 270 270 269 269 269 269 269 269 269 269 269 269 270 269 269 269 270 270 269 268 268 268 268 268 268 268 269 269 269 270 270 271 271 271 271 271 271 271 272 272 272 272 272
271 271 271 271 271 271 270 270 270 270 270 269 269 269 269 269 268 268 268 268 268 268 268 269 269 269 269 269 269 268 268 269 269 269 269 269 269 269 269 269 269 269 269 269 269 269 269 269 269 269 269 269 269 269 269 269 269 269 269 269 269 268 267 268 268 268 268 268 268 269 269 269 270 271 271 271 271 271 271 271 271 271 271 271 271
270 270 271 271 270 270 270 270 269 269 269 269 269 269 269 268 268 268 268 268 268 268 268 268 268 268 268 268 268 268 268 268 268 269 269 269 269 269 269 269 269 269 269 269 269 269 269 269 269 269 269 269 269 268 268 268 268 268 269 269 269 268 268 268 268 268 268 268 268 269 269 269 269 270 270 271 271 271 271 271 271 271 271 271 271
270 270 270 270 270 269 269 269 269 268 268 268 269 269 268 268 267 267 267 267 268 267 267 268 268 268 268 268 268 268 268 268 268 268 268 268 268 268 268 268 268 268 268 268 268 268 268 268 268 268 268 268 268 268 268 268 268 268 268 268 268 268 268 268 268 269 269 269 269 268 268 268 269 269 270 270 271 271 271 271 271 271 271 271 271
Wind_Speed
9 7 5 3 2 1 2 4 6 8 10 12 14 15 15 16 16 17 17 18 18 18 18 18 19 19 19 20 20 21 22 23 24 26 27 28 29 30 31 32 32 34 34 35 35 36 37 38 39 40 40 41 42 43 43 43 44 44 44 45 45 45 44 42 44 52 56 53 52 54 52 51 53 52 51 52 51 49 47 46 44 43 42 41 40
9 6 4 3 1 1 3 6 8 11 13 15 16 17 18 18 18 18 19 19 19 20 20 20 20 20 21 21 22 23 24 25 26 28 29 30 31 31 32 33 34 35 35 36 37 37 39 40 41 43 43 44 45 46 46 46 46 47 47 47 48 48 46 44 44 50 57 57 55 55 54 52 54 55 52 53 54 53 52 52 49 48 46 45 44
8 6 5 4 3 3 5 8 11 14 16 17 19 19 20 20 20 20 21 21 21 21 21 22 22 22 23 23 24 25 26 27 28 29 31 31 32 33 33 34 35 36 36 36 37 38 39 40 41 42 44 45 46 47 47 48 48 49 50 49 50 51 49 46 44 47 54 58 57 55 54 52 53 56 55 54 56 55 55 55 54 52 51 49 47
8 7 6 5 4 5 8 11 14 16 18 19 20 21 21 21 21 22 22 23 23 23 23 23 23 23 24 24 26 26 27 29 30 31 32 33 34 35 35 36 36 37 38 38 39 40 40 42 42 43 43 44 45 46 46 47 48 49 51 51 51 52 51 48 46 46 50 56 60 57 54 52 51 53 54 54 55 56 57 57 56 55 54 52 50
9 9 7 5 5 7 10 13 15 17 18 20 21 22 22 23 23 24 24 24 24 24 24 24 24 24 25 25 26 27 29 30 32 33 34 35 36 37 37 38 39 39 40 41 42 42 43 44 44 44 45 46 46 47 47 47 48 49 50 51 51 51 51 50 49 46 46 52 60 60 56 53 51 50 51 51 53 56 57 57 57 56 55 54 52
11 9 7 6 6 8 11 14 16 17 19 21 22 23 23 24 24 24 25 25 25 25 25 25 25 25 26 26 27 29 30 32 33 34 35 36 37 38 39 40 41 42 43 44 44 45 45 46 46 46 46 47 47 48 48 47 47 48 48 48 48 48 49 50 49 47 46 49 55 58 58 54 48 44 45 44 45 50 54 55 55 54 54 55 54
11 9 7 6 8 10 12 15 17 18 19 20 22 23 23 24 24 24 25 25 26 26 26 26 26 27 27 28 29 30 32 33 34 35 36 37 38 39 41 42 43 45 46 46 46 46 46 46 46 47 47 47 48 48 48 48 47 47 46 45 45 44 45 46 45 44 44 47 51 55 58 56 48 42 41 36 35 42 47 48 50 52 51 52 52
11 9 8 8 10 12 14 16 18 18 19 20 22 24 24 24 24 25 25 26 26 26 26 27 27 27 28 29 30 32 33 34 35 36 38 39 40 42 43 45 46 47 47 47 47 47 46 46 46 47 47 47 46 46 45 45 44 45 44 41 40 40 40 40 40 40 40 43 48 53 55 56 51 42 37 30 27 32 35 34 39 47 49 48 49
11 10 10 11 12 14 16 18 18 18 19 21 23 24 25 25 25 26 26 26 26 26 26 27 27 28 29 30 31 33 34 35 36 38 39 41 43 44 45 47 47 48 48 47 46 46 46 46 46 46 46 45 44 43 41 40 38 39 39 36 34 35 35 35 35 35 34 35 41 44 44 49 48 37 30 28 26 28 28 27 31 39 43 44 45
13 12 12 13 14 16 18 19 19 19 20 22 24 25 26 26 27 27 27 26 26 26 27 27 28 29 29 30 32 33 35 36 37 38 40 42 43 45 46 47 47 47 47 46 46 46 46 46 46 46 45 44 43 41 39 37 34 33 33 31 30 30 32 34 33 31 30 30 34 35 35 40 42 34 29 29 27 26 28 28 29 32 35 36 38
15 15 15 15 17 18 19 19 19 20 21 23 25 26 27 28 28 28 27 27 27 27 28 28 28 29 30 31 33 34 36 37 38 40 41 42 43 44 45 46 45 45 46 46 47 46 46 46 45 45 44 42 41 39 38 36 33 31 29 27 25 25 26 29 30 29 29 31 33 34 34 37 38 33 31 29 26 25 25 25 25 26 28 29 32
17 17 17 18 19 20 20 20 20 21 22 24 26 27 28 29 29 29 28 27 28 28 28 29 29 30 31 33 35 36 37 39 40 42 42 42 42 42 43 44 44 45 45 45 46 45 45 44 43 42 41 39 38 37 35 33 31 28 26 23 22 21 22 24 27 27 28 30 33 34 34 34 35 33 30 29 29 29 29 28 28 28 29 29 30
19 20 19 19 20 20 20 21 21 22 23 24 26 28 30 30 30 30 28 28 28 28 29 29 30 31 33 34 36 38 39 41 42 43 42 41 40 40 41 43 43 44 44 44 44 43 42 41 40 39 37 35 34 32 31 29 26 24 23 22 21 22 21 22 24 26 27 29 33 36 34 32 35 35 31 28 30 33 33 35 34 33 36 38 37
22 22 21 20 21 21 21 22 22 23 24 25 28 30 31 31 31 29 29 29 29 29 29 30 31 32 34 36 38 40 42 42 43 42 41 40 40 40 41 42 42 43 43 42 42 41 40 39 38 36 34 32 29 27 25 24 24 24 24 25 27 27 25 24 23 24 25 26 30 34 33 31 34 37 34 30 31 33 34 35 35 35 38 41 41
24 23 22 22 23 23 23 24 24 24 25 27 29 31 32 31 30 29 29 29 29 29 29 30 32 34 36 38 40 42 43 42 42 41 40 40 39 40 41 41 42 42 41 40 40 39 38 36 34 33 31 29 25 23 23 23 24 27 29 31 33 32 31 29 26 24 24 25 28 32 32 31 31 34 33 30 30 32 33 35 37 38 41 43 43
24 23 22 24 25 25 25 25 25 25 27 29 31 32 32 31 29 29 28 28 28 29 30 31 33 35 37 39 42 43 43 41 40 40 40 39 39 40 41 41 41 40 40 38 37 37 35 33 31 30 30 27 24 21 21 23 26 30 32 34 33 32 31 29 26 24 25 27 29 30 31 30 31 32 33 31 31 32 34 36 36 35 36 40 42
23 23 24 26 26 27 26 26 26 27 29 31 32 32 31 30 28 28 28 28 28 29 31 33 35 37 39 41 42 43 42 40 39 39 38 38 39 40 40 40 39 38 37 36 35 35 33 30 28 29 29 26 23 22 22 25 29 31 32 32 32 32 32 30 29 29 29 30 30 29 30 30 30 30 31 30 31 31 33 36 35 32 33 35 36
22 24 26 27 27 28 27 27 28 29 30 31 32 31 30 29 28 28 28 29 29 31 32 35 37 39 41 41 42 42 41 39 38 38 37 37 38 38 38 38 37 37 36 35 33 32 30 29 28 29 29 26 24 25 25 26 28 29 31 33 34 35 35 35 35 35 34 33 32 31 30 29 29 30 30 29 27 25 27 31 32 33 38 41 39
23 25 26 28 29 29 29 29 29 30 31 31 31 30 29 28 28 28 28 29 31 32 34 37 39 40 41 41 40 40 40 38 36 36 36 36 36 36 36 35 35 35 34 32 31 29 29 30 30 29 27 25 24 25 24 23 26 28 30 33 36 38 38 37 37 37 36 34 32 30 30 30 30 31 31 28 27 27 30 34 34 36 40 43 42
23 25 27 29 30 30 30 30 29 30 31 31 30 30 29 28 27 28 28 30 32 34 36 38 40 41 40 40 38 37 37 36 35 35 35 35 34 32 31 32 32 32 30 29 30 32 32 32 32 30 26 23 22 23 22 22 26 29 32 35 37 38 37 36 36 35 34 32 32 32 35 36 36 36 35 35 35 36 38 38 37 36 37 38 37
24 26 28 29 30 30 30 29 30 30 31 31 30 30 28 28 28 28 29 31 33 36 38 39 41 41 39 38 37 35 34 34 34 34 34 33 31 28 27 28 28 28 29 30 30 32 32 33 34 32 26 23 23 24 24 25 27 30 33 35 35 35 34 34 34 34 33 34 35 36 37 37 37 37 38 38 38 37 37 36 35 35 34 34 34
25 26 28 29 30 30 30 29 30 30 30 31 31 30 28 28 28 29 31 33 35 37 38 39 40 40 38 37 35 33 32 32 33 33 32 31 27 24 23 24 24 25 28 29 29 31 32 32 33 32 27 25 26 27 27 28 30 31 33 34 33 33 32 32 33 34 34 36 36 37 36 36 37 38 38 38 38 37 37 37 37 37 36 35 35
25 26 27 28 29 29 29 29 30 30 30 31 30 29 28 28 29 30 32 34 36 38 38 38 38 39 38 36 34 32 31 31 31 32 31 28 24 22 21 21 20 22 26 28 29 31 31 31 31 31 29 29 29 29 28 29 31 32 33 32 31 30 30 31 33 35 36 36 36 36 36 36 37 38 38 37 37 37 37 37 38 38 40 40 40
25 26 27 28 28 29 29 29 29 30 30 30 30 29 28 28 29 31 33 35 36 37 37 37 37 38 37 36 33 31 30 30 30 31 30 27 25 24 22 21 20 22 25 27 29 30 30 31 31 31 32 32 31 29 28 29 31 32 32 31 30 31 32 33 34 35 35 35 35 35 35 35 35 36 35 35 35 35 35 36 37 38 39 41 43
25 26 27 28 28 29 29 29 29 30 29 30 29 28 28 29 31 32 33 34 35 36 36 35 35 35 35 35 33 31 29 29 29 29 28 28 27 25 24 23 22 23 24 26 28 29 30 31 31 30 30 29 27 28 30 34 35 36 36 35 34 34 33 33 33 33 33 34 34 34 34 34 34 34 34 35 35 35 35 36 37 37 37 38 41
25 25 27 28 28 29 29 29 29 29 29 29 29 28 29 30 32 33 33 33 34 34 34 33 33 33 33 32 31 30 29 28 28 28 28 28 27 26 26 26 24 24 25 27 28 28 28 28 27 26 26 27 30 33 37 39 38 37 35 34 33 33 32 32 32 32 32 33 33 34 34 34 34 34 34 34 35 35 35 37 37 36 36 37 39
25 25 27 28 29 29 29 29 29 29 29 29 28 28 29 31 32 33 32 32 32 32 32 32 31 31 30 29 29 29 28 28 28 28 28 28 27 27 28 28 27 27 28 29 28 28 29 29 30 31 32 34 35 35 35 34 33 32 32 31 31 31 30 30 29 30 31 32 32 33 33 33 33 33 33 33 34 33 34 35 36 37 36 35 36
25 26 27 28 29 29 29 30 29 29 29 28 28 29 30 31 32 32 31 30 30 30 30 30 29 28 28 28 28 28 27 27 28 27 27 26 26 27 28 28 28 28 28 29 30 31 33 33 33 33 32 32 31 30 29 29 29 29 29 28 28 28 27 27 27 28 29 31 32 33 33 32 32 32 33 34 34 34 33 33 35 37 36 32 32
25 26 27 28 29 29 29 30 30 29 29 29 29 30 30 30 31 30 28 27 27 27 28 29 27 26 25 26 26 28 28 27 25 24 22 21 23 25 25 25 25 26 28 30 31 31 30 30 29 29 28 28 28 27 27 27 27 26 25 25 25 25 25 26 27 28 29 30 31 31 31 31 32 32 33 34 34 34 33 33 34 37 36 32 32
25 27 28 28 29 29 29 30 30 29 29 29 30 31 30 29 29 29 28 26 25 24 26 26 24 22 23 23 24 25 26 25 22 19 18 19 21 22 21 22 23 25 26 27 26 26 25 25 25 25 24 24 24 24 24 24 25 25 24 23 23 23 24 25 25 27 28 29 29 29 29 30 32 32 33 34 35 34 33 32 33 36 37 37 36
26 27 28 28 29 29 29 29 29 29 29 29 31 31 30 26 23 23 25 25 23 21 23 23 20 18 20 22 22 21 20 19 17 15 16 18 20 20 20 22 23 23 24 24 24 23 22 21 21 20 21 21 21 22 22 23 23 24 24 23 22 22 23 24 24 26 27 27 28 28 29 30 31 32 33 34 35 35 34 32 32 34 35 37 36
27 27 28 28 29 29 28 28 28 28 28 29 30 31 30 27 21 18 19 22 21 20 20 20 18 17 17 19 20 18 16 15 14 13 14 17 18 18 19 21 21 21 22 22 21 20 20 20 20 21 21 21 22 22 22 22 22 23 24 24 23 22 22 23 24 25 26 27 28 28 29 30 31 32 34 35 35 35 34 34 34 34 34 35 35
27 27 27 28 28 27 27 27 27 27 28 29 29 28 27 26 23 19 16 17 19 18 18 17 16 14 14 15 15 14 13 13 12 11 13 16 16 16 18 19 19 20 20 19 18 19 20 21 21 22 22 22 22 22 22 22 23 23 24 24 25 24 23 23 24 25 26 26 28 29 30 31 31 33 35 35 34 33 32 33 34 33 33 34 35
27 27 27 27 26 26 26 26 26 27 27 27 27 25 24 24 23 21 18 16 16 15 14 14 13 11 11 12 11 11 12 12 10 10 12 14 14 15 16 17 17 16 16 17 18 19 20 21 22 22 22 22 22 22 22 23 23 24 25 25 26 26 26 26 26 27 27 28 28 30 31 31 32 33 33 33 32 30 30 31 32 33 33 34 35
27 26 26 26 25 25 25 25 26 26 26 25 25 24 22 21 20 20 19 17 16 14 12 11 11 10 9 9 9 9 10 9 8 8 11 13 14 15 15 15 14 14 15 17 18 19 21 22 23 23 23 22 22 22 22 23 24 25 26 27 28 29 29 30 30 30 30 30 29 29 30 31 32 32 31 31 30 29 29 29 30 31 33 34 34
26 26 25 24 24 24 24 25 25 25 24 23 22 21 20 19 19 18 17 16 16 15 13 11 10 9 9 9 9 9 9 8 7 8 11 13 14 15 15 15 15 16 16 17 18 19 21 22 23 23 23 22 22 22 22 23 23 24 27 29 32 33 34 34 34 33 31 30 30 30 30 30 31 30 30 29 29 29 28 28 29 30 31 32 32
25 24 23 23 23 23 24 24 24 23 22 21 20 19 18 18 17 17 16 15 14 14 13 12 10 9 8 8 9 9 9 8 7 9 11 13 13 14 15 16 17 17 17 17 18 18 20 21 23 24 24 23 23 22 22 23 24 26 28 32 33 34 35 36 35 34 32 31 30 30 30 30 30 29 29 29 29 28 28 27 27 28 29 29 29
24 22 22 22 23 23 23 23 22 21 20 19 18 17 16 16 16 16 15 14 13 12 12 12 11 10 9 9 9 9 9 8 7 8 10 11 12 13 14 15 16 16 16 17 18 19 20 21 22 23 24 25 24 23 23 23 24 26 29 32 32 33 35 36 36 35 33 32 31 31 30 30 29 28 28 28 28 27 27 27 27 27 28 28 28
22 21 21 22 22 23 22 20 19 18 17 16 16 15 15 15 15 15 14 13 12 12 11 11 11 11 11 11 11 10 9 8 8 9 10 11 12 13 14 14 15 16 17 18 19 19 20 21 22 22 23 24 25 24 23 23 24 25 28 30 31 32 35 37 37 36 34 33 32 31 30 30 29 28 27 26 26 26 26 26 26 26 26 27 27
20 20 21 21 21 21 19 17 16 16 14 14 14 14 14 14 14 14 14 12 11 11 10 10 10 10 11 12 13 12 11 10 10 11 12 12 12 13 14 14 15 16 17 18 19 19 19 20 21 22 23 24 24 24 23 22 22 24 26 28 30 32 35 36 37 36 35 33 32 31 31 30 29 28 27 26 26 25 24 24 24 24 24 25 25
20 20 21 20 19 18 16 14 14 13 12 12 13 13 13 14 14 14 13 12 11 10 10 9 9 10 11 11 13 13 13 12 11 12 12 12 13 13 14 15 15 16 17 18 18 19 19 19 20 22 22 23 24 24 23 22 22 22 24 27 29 32 34 35 36 36 36 35 33 32 31 29 28 28 27 26 26 25 23 22 21 21 21 21 22
19 19 19 18 16 15 13 13 13 12 12 12 13 13 13 14 14 13 12 12 11 11 9 9 9 9 10 11 11 12 13 12 12 12 12 12 13 13 13 14 15 16 17 18 18 19 19 19 20 21 22 22 23 24 24 24 22 22 23 25 28 30 33 34 35 35 36 36 35 33 32 30 28 27 26 26 25 24 23 21 20 19 18 17 17
19 18 17 16 14 13 12 13 12 12 12 12 13 13 13 13 13 13 12 12 12 11 10 9 8 9 10 11 11 12 12 12 12 13 13 13 13 13 14 14 15 15 16 17 18 19 19 19 20 20 21 22 23 23 23 23 22 22 21 23 25 29 32 34 34 35 36 36 36 35 34 31 29 27 26 25 25 24 22 21 20 19 18 16 14
17 17 15 14 13 12 12 13 13 12 13 13 13 13 14 14 13 13 12 12 12 12 11 10 10 9 10 11 12 12 12 12 12 13 13 14 14 14 14 14 15 15 16 17 18 19 19 19 20 20 20 20 21 22 22 22 21 21 20 21 23 26 30 32 34 34 35 35 35 35 35 33 30 28 26 25 24 23 22 21 20 19 18 16 15
16 15 14 13 13 13 13 13 13 13 13 13 13 13 14 14 13 13 13 13 12 12 12 12 11 11 11 12 12 13 13 12 13 13 14 14 15 15 15 15 15 16 16 17 18 18 19 19 20 20 20 20 20 21 21 21 21 20 19 19 20 23 27 30 32 33 33 34 34 34 34 33 31 29 26 25 23 22 21 20 19 18 17 17 17
15 15 14 14 14 14 14 14 14 14 14 14 14 14 14 14 14 14 13 13 13 13 12 12 13 13 13 13 13 14 13 13 14 14 15 15 16 16 16 16 16 16 17 17 18 18 19 20 20 20 20 21 21 21 21 21 22 21 20 18 18 20 23 27 30 31 32 33 33 32 32 31 30 28 26 24 22 21 20 19 18 16 16 16 16
15 15 14 15 15 14 14 15 15 14 14 14 14 14 14 14 15 14 14 14 14 14 13 13 13 14 14 14 15 15 15 15 15 15 16 16 17 18 18 18 18 18 18 18 18 19 19 20 20 20 20 21 21 21 21 21 22 22 21 19 17 18 21 25 28 30 30 31 32 31 30 29 29 28 26 23 22 21 20 19 17 16 15 14 15
15 15 15 15 15 15 15 15 15 15 15 15 15 14 14 15 15 15 15 15 15 15 14 14 14 15 15 16 16 16 16 16 16 17 17 18 19 19 20 20 20 20 20 19 19 19 20 21 21 21 21 21 21 21 21 21 21 22 22 19 17 16 18 21 25 28 30 31 31 31 29 28 27 26 24 23 22 21 19 18 17 16 15 14 14
15 15 15 15 15 15 15 15 16 16 16 16 15 15 14 15 16 16 16 17 17 16 15 15 16 16 17 17 17 17 17 18 18 18 19 19 20 21 21 21 21 22 22 21 21 21 21 21 22 22 22 22 21 21 21 20 20 22 22 20 17 16 16 17 20 25 28 31 31 31 29 27 25 24 23 22 21 20 19 18 17 16 15 14 13
15 16 15 15 15 15 15 16 16 16 16 16 16 15 15 16 17 17 17 18 18 17 17 17 17 18 18 18 18 18 18 19 19 20 20 20 21 22 22 22 22 23 23 23 22 22 22 22 22 22 23 23 22 21 20 20 20 20 21 20 18 17 16 15 16 21 26 29 31 32 30 27 25 23 21 20 19 19 19 18 17 16 15 14 13
15 15 15 15 15 15 16 16 16 16 16 16 16 16 16 16 17 17 18 19 19 18 18 18 19 19 20 20 20 20 20 20 20 20 21 21 21 22 22 22 22 22 22 22 22 22 22 22 22 22 22 22 22 22 21 20 20 20 20 20 19 18 16 14 14 18 23 27 29 30 30 28 25 23 21 20 19 18 18 18 17 16 15 15 14
Wind_Direction
187 179 161 141 124 51 11 356 350 344 341 339 336 334 333 331 330 328 328 328 326 325 324 323 322 321 321 319 319 319 318 319 319 319 319 319 319 318 318 317 316 316 316 316 316 315 314 313 312 311 310 309 307 306 305 303 302 301 300 299 298 297 298 298 295 296 297 296 295 293 293 294 292 293 294 295 296 297 296 295 294 293 293 294 293
193 188 183 181 211 300 327 335 338 337 337 335 333 332 330 329 328 327 326 324 323 322 321 321 320 318 318 318 318 318 319 319 319 319 319 318 318 317 317 316 315 314 314 314 314 313 312 311 311 310 310 308 307 306 305 304 303 302 300 299 299 297 297 296 295 295 295 295 295 294 293 293 291 290 292 293 293 294 294 293 293 292 291 290 291
200 202 213 222 250 297 322 333 337 337 336 334 332 330 327 326 325 323 323 322 321 320 319 318 318 317 317 318 318 319 319 319 319 319 318 317 316 315 315 314 313 312 312 311 311 310 309 309 308 308 308 306 305 305 304 304 303 302 300 299 299 297 297 296 294 293 293 293 293 293 292 292 291 289 290 290 290 291 291 291 292 292 291 290 289
211 218 227 240 271 307 328 336 337 336 333 330 328 326 324 323 322 321 321 320 319 318 317 316 316 315 316 316 317 317 318 318 319 318 317 317 316 315 314 313 313 312 312 311 311 310 309 308 307 307 306 304 302 301 301 300 300 299 298 298 297 296 296 295 292 291 291 292 292 292 292 291 290 288 288 288 287 287 288 288 289 289 289 289 288
221 228 236 255 291 320 333 335 333 330 327 326 325 324 322 321 320 319 318 316 315 315 315 314 313 313 314 314 315 316 317 317 317 317 317 316 315 315 314 314 313 313 313 312 312 311 310 309 308 307 305 303 301 300 299 298 297 296 295 295 295 294 293 292 291 290 289 289 290 291 291 291 290 288 287 287 287 286 285 285 286 287 288 288 288
227 233 246 271 305 322 326 326 324 321 320 321 322 321 319 318 317 316 314 314 313 312 312 312 312 312 312 313 314 315 316 316 316 316 315 315 314 314 314 314 313 313 313 312 312 311 309 308 307 306 304 303 302 301 300 299 298 297 296 295 294 294 293 291 291 290 288 288 288 289 290 290 290 288 287 288 287 286 286 285 285 285 286 287 288
230 238 254 279 301 310 314 315 314 312 311 315 318 318 316 315 314 313 312 311 310 309 310 310 310 311 311 312 313 314 315 316 316 315 315 314 314 314 313 313 313 312 312 311 310 309 308 307 306 305 304 303 303 303 303 302 302 301 299 298 297 295 294 291 290 289 288 287 286 286 287 288 287 286 287 286 284 284 285 287 288 287 285 285 286
232 241 257 275 290 299 304 306 304 302 304 310 315 316 315 314 314 313 311 309 308 307 307 307 308 309 310 311 312 313 314 315 315 315 315 315 314 314 314 313 312 311 310 309 309 308 307 306 305 304 304 304 304 305 305 305 304 302 301 300 299 296 294 292 290 287 286 285 285 285 286 287 287 287 287 285 280 280 282 285 288 288 286 285 284
234 244 258 272 284 292 296 296 295 295 300 308 313 316 316 316 314 313 311 308 306 306 306 306 307 308 308 309 311 312 314 315 315 315 315 315 315 314 314 313 312 310 309 309 308 307 307 306 305 305 305 305 305 305 305 304 303 301 300 298 296 294 292 290 288 287 285 284 285 286 286 286 287 287 288 285 281 280 281 280 281 284 285 286 284
237 247 258 270 280 285 288 288 289 291 299 307 311 314 316 316 315 313 311 308 306 306 306 306 307 307 308 309 310 312 314 314 315 315 315 315 315 314 313 312 311 310 310 310 308 308 307 307 307 307 307 307 307 307 306 304 302 300 298 294 290 288 288 286 285 285 285 283 283 284 285 285 285 288 290 290 287 285 283 279 278 280 283 285 285
240 249 258 268 275 280 282 283 285 291 299 305 308 312 315 315 315 313 310 308 306 306 306 306 306 307 308 309 311 313 314 315 315 315 315 315 315 314 313 311 311 311 310 310 309 309 309 309 309 309 309 310 310 309 307 307 306 303 299 296 293 290 288 289 289 287 285 283 282 282 282 282 285 288 290 291 293 292 287 284 282 282 281 282 284
244 251 258 265 271 275 277 279 284 291 298 303 307 311 314 314 314 312 309 307 305 305 306 306 307 308 309 311 312 313 315 315 316 315 315 315 315 314 313 311 311 311 310 310 309 310 310 310 310 310 310 312 312 312 313 311 310 306 301 297 293 290 287 287 289 289 288 286 284 282 282 284 287 289 289 290 291 289 286 285 286 283 281 281 280
247 252 256 262 268 271 274 278 285 291 297 302 306 310 312 313 312 310 307 305 305 305 306 306 308 309 311 312 313 315 316 316 316 316 316 316 316 314 312 311 311 310 310 309 309 310 310 310 310 310 313 315 316 317 317 315 313 310 306 304 302 299 293 289 288 287 285 285 284 282 283 286 286 286 288 292 292 290 287 286 286 283 280 280 278
250 252 255 261 266 270 274 279 284 290 296 301 305 309 311 311 310 307 305 305 304 305 306 307 308 310 312 314 315 315 316 316 316 316 316 316 316 314 312 311 310 309 309 309 309 310 311 310 311 313 316 318 321 324 323 321 319 315 313 314 315 313 308 305 301 294 288 285 284 284 285 287 285 285 289 291 290 288 287 286 286 286 285 285 284
250 252 257 263 267 270 274 279 284 291 297 302 305 308 310 309 308 306 304 304 304 305 306 308 310 312 313 315 315 315 316 317 317 317 317 317 316 314 312 311 309 308 308 309 310 310 310 311 313 316 319 322 325 328 326 321 315 312 314 316 316 314 311 309 306 298 292 289 286 286 287 288 288 289 292 292 288 286 286 285 285 286 286 286 285
250 254 261 265 267 270 275 280 286 292 297 302 306 308 308 307 306 304 303 303 303 305 307 309 311 313 314 315 315 315 316 317 317 317 317 317 315 313 311 310 309 309 310 311 310 309 310 312 315 319 320 322 325 328 325 314 305 307 310 310 309 307 305 306 305 299 297 295 290 287 287 287 288 289 291 292 290 289 289 289 289 289 287 284 281
253 260 264 266 269 273 277 281 286 292 297 302 305 306 306 306 304 303 302 302 304 306 308 310 312 314 315 315 315 315 316 317 318 317 317 316 314 312 311 311 310 311 311 310 309 309 309 312 316 319 319 321 325 327 320 307 300 301 303 303 304 302 302 308 313 310 308 306 302 298 295 293 291 290 290 291 290 290 290 288 290 292 290 287 285
260 265 268 270 272 275 278 281 286 292 297 302 304 305 305 304 303 303 302 303 305 308 310 312 313 314 314 315 315 315 315 317 317 316 316 315 313 312 312 312 311 311 311 310 308 308 308 311 316 318 318 321 322 315 308 302 298 299 300 301 301 300 303 310 312 310 310 309 308 307 304 302 299 296 295 294 290 287 285 283 285 286 285 286 288
266 269 271 273 274 275 277 281 286 293 299 302 304 304 305 304 302 302 303 304 307 309 311 313 313 314 314 314 314 314 315 316 316 316 315 314 313 313 313 312 311 310 308 307 307 310 312 313 315 314 316 320 316 307 304 304 302 301 302 299 297 297 303 308 308 307 309 310 310 310 307 305 302 298 296 292 286 282 279 279 280 281 281 283 285
268 270 272 272 273 274 277 282 288 295 300 302 303 304 304 303 301 302 303 305 308 310 312 312 312 313 313 313 313 314 314 315 315 316 315 314 314 314 312 310 309 308 308 311 315 316 315 313 312 313 317 319 314 309 310 306 301 302 301 298 297 299 305 309 308 309 309 308 305 303 299 297 295 292 290 289 286 285 285 284 283 282 280 280 281
265 268 270 271 272 274 277 283 290 296 300 302 303 304 303 302 301 302 304 306 309 310 311 312 311 311 312 312 313 314 315 315 316 316 314 313 314 314 312 311 312 312 313 315 314 312 311 310 311 314 318 319 316 314 311 304 300 301 300 298 299 301 304 305 305 303 300 297 295 295 294 294 294 293 292 292 291 290 291 290 288 286 282 277 277
263 267 269 270 272 275 278 284 291 296 299 301 303 303 302 300 301 303 306 307 309 310 311 311 311 310 311 311 312 315 317 317 316 315 312 312 315 317 315 315 315 310 307 307 307 308 309 307 307 311 318 320 318 314 308 304 302 300 298 297 298 299 300 300 298 295 295 297 298 299 300 301 300 299 298 297 295 293 292 290 288 286 282 276 273
262 266 269 271 273 276 280 286 292 296 298 300 302 301 300 299 301 304 306 307 309 310 311 310 310 309 310 311 313 316 318 317 315 312 311 314 320 322 319 317 314 305 299 301 305 306 305 305 308 313 317 317 313 308 302 299 297 295 295 296 297 297 298 297 296 296 298 299 299 299 300 302 302 300 300 298 297 296 293 289 285 282 279 277 275
263 266 269 271 273 276 281 287 292 295 297 298 299 299 298 298 301 304 306 308 309 310 310 310 309 309 309 311 315 318 318 317 314 312 314 321 327 325 322 324 320 308 301 302 304 303 303 306 309 309 308 307 305 301 295 293 294 296 298 299 297 296 296 295 296 297 297 297 296 297 301 306 306 305 305 304 303 301 299 295 292 288 283 279 276
264 267 269 271 274 277 282 287 291 294 295 297 297 297 297 299 301 304 306 308 309 309 310 309 308 309 311 313 316 319 319 316 314 316 322 327 328 327 330 332 322 308 303 303 303 303 304 304 305 304 303 302 301 298 295 297 301 302 303 301 300 298 298 297 297 297 296 297 299 302 308 314 316 315 314 312 309 307 305 304 302 299 294 288 283
265 268 270 273 275 278 283 287 291 293 294 295 296 295 297 299 302 305 307 308 308 309 309 308 308 310 312 315 317 319 318 316 317 322 327 328 328 332 335 331 320 311 311 311 311 310 309 306 304 302 297 293 292 294 296 299 301 303 303 303 303 301 300 299 299 298 299 300 304 307 311 315 317 318 317 315 311 308 307 307 304 301 299 296 291
266 269 271 273 276 279 284 288 291 292 293 294 294 295 297 300 303 306 308 308 308 308 307 307 309 311 313 316 317 318 319 320 323 327 329 330 332 334 332 329 326 324 323 321 318 313 306 300 296 294 292 292 295 297 299 301 302 303 304 304 304 304 303 301 301 302 304 306 307 308 308 310 313 316 317 316 313 310 310 309 305 303 302 297 290
267 269 272 274 276 280 285 288 290 291 292 292 293 294 297 300 303 305 307 306 306 307 306 306 309 312 314 317 318 319 320 322 326 329 331 331 331 329 328 329 328 323 316 311 307 303 301 302 303 303 303 305 306 307 307 307 307 307 307 306 305 305 304 303 303 304 307 308 308 308 308 309 312 315 317 316 313 312 313 311 307 305 304 295 284
267 269 272 274 277 282 286 288 289 290 290 291 292 294 297 300 302 304 304 304 304 305 305 307 312 316 317 318 317 315 316 320 326 328 329 328 326 324 325 324 319 313 310 309 310 311 314 316 318 318 318 317 317 318 317 315 314 313 312 311 310 309 308 308 308 309 310 311 311 312 313 315 316 318 319 317 314 313 314 311 307 304 300 292 284
267 269 272 275 278 282 284 286 287 288 288 289 291 294 297 299 302 303 304 304 305 307 308 310 314 314 311 309 308 307 309 317 322 323 325 326 323 320 318 316 314 315 317 320 323 325 326 327 327 327 327 327 327 328 328 327 326 324 322 320 318 316 315 315 315 316 316 316 316 316 317 319 320 321 322 319 316 315 314 311 306 301 297 294 290
266 269 272 275 278 281 282 283 283 284 286 288 291 294 296 298 299 301 302 303 304 306 306 306 308 305 300 299 302 306 310 314 316 320 325 324 317 314 314 317 321 324 325 328 331 332 332 336 339 339 340 341 341 340 340 339 338 335 333 331 329 326 324 324 324 323 322 322 321 321 322 323 323 323 323 322 320 318 316 313 309 302 298 297 293
265 267 271 274 277 279 280 280 281 282 285 288 291 294 297 299 299 297 297 298 302 303 303 303 304 304 299 296 299 307 313 313 313 321 323 316 312 316 319 321 326 329 328 329 333 337 341 346 350 351 352 352 351 350 349 348 346 345 342 340 338 336 333 332 331 330 329 329 328 328 328 327 326 326 326 325 322 319 316 313 311 306 301 298 294
263 266 270 273 276 277 278 278 280 282 286 289 292 295 298 300 301 300 297 296 299 302 303 303 303 303 299 297 299 307 312 311 313 316 314 312 317 323 325 326 330 330 329 333 341 347 351 354 355 355 354 354 353 352 352 352 351 351 350 348 346 345 342 340 339 337 336 335 335 334 333 332 330 329 328 326 323 319 314 311 310 308 303 299 296
262 266 270 272 274 276 276 278 280 284 288 291 294 297 299 300 302 305 305 302 300 301 302 303 303 301 297 297 300 305 308 309 310 308 310 318 328 331 331 332 332 330 334 344 352 355 357 358 357 355 353 352 352 352 352 354 353 353 353 353 352 351 351 350 348 345 342 341 339 337 336 334 333 331 329 327 324 318 312 310 309 307 304 301 299
262 266 269 272 273 274 276 279 283 287 290 293 295 297 298 298 300 304 307 307 305 305 303 300 300 300 298 300 304 309 310 310 310 311 318 328 335 337 336 335 334 337 347 355 359 2 2 0 359 357 352 351 352 352 352 354 355 356 358 358 357 358 358 356 353 350 346 343 341 339 337 335 334 333 332 330 328 322 315 311 310 308 306 305 303
262 265 268 271 272 274 277 281 285 288 290 292 294 294 295 297 299 301 304 306 307 307 305 302 300 302 306 309 313 316 317 318 325 332 333 334 335 336 337 340 345 351 356 358 0 4 4 1 1 360 355 352 352 352 352 355 356 359 3 2 1 0 359 355 352 350 347 343 342 341 339 336 335 336 334 333 332 329 321 314 312 310 308 308 307
261 264 267 269 271 274 279 282 285 287 289 290 291 291 291 294 297 300 303 305 305 304 303 301 301 305 308 310 314 318 321 327 342 348 341 335 334 335 339 345 349 352 354 357 360 4 4 3 3 3 0 357 353 350 351 355 359 4 7 6 2 358 355 352 351 349 348 347 345 343 341 338 336 337 337 336 336 334 325 316 313 312 310 310 311
259 262 264 268 272 276 280 282 283 284 287 288 288 288 290 293 296 298 300 301 301 300 299 299 302 307 310 311 314 318 318 323 340 350 342 335 336 340 343 348 349 349 352 357 360 2 4 4 3 3 2 358 354 351 351 354 1 7 9 5 359 354 352 353 353 352 351 350 347 345 343 341 338 338 339 339 339 337 329 319 315 314 314 313 313
257 259 263 268 273 276 278 279 280 281 283 284 284 286 288 291 294 295 296 296 296 295 296 297 300 307 313 314 315 318 319 324 338 347 344 341 342 345 347 349 349 350 354 359 1 3 4 3 2 3 2 359 356 354 353 355 1 9 11 6 359 354 354 355 355 354 352 351 350 348 346 344 341 339 339 340 342 341 334 326 320 318 318 316 312
254 259 264 268 272 274 274 274 275 276 278 279 280 283 286 288 289 290 290 291 291 290 291 293 296 304 310 313 315 319 324 332 340 342 341 341 344 346 347 349 351 353 355 358 0 3 3 2 1 1 0 358 356 355 355 356 1 8 11 9 2 357 356 357 358 356 354 352 351 351 349 347 345 343 341 341 343 342 339 333 326 322 319 316 312
254 260 264 266 268 269 270 269 269 270 272 274 276 279 282 283 284 285 285 285 286 285 286 288 293 300 304 307 312 316 321 328 334 334 334 336 340 343 346 347 349 351 351 353 355 357 359 0 0 359 359 358 355 354 353 356 0 6 11 11 5 359 357 359 0 359 356 355 354 353 351 350 349 347 344 342 341 341 341 340 335 328 320 315 311
255 259 261 262 262 264 264 263 262 263 266 269 271 274 276 278 279 280 280 282 282 282 281 282 288 293 296 299 303 306 310 317 323 325 327 331 334 338 340 342 343 345 345 346 348 349 352 355 357 357 357 357 355 353 352 352 356 3 8 10 7 1 357 358 360 360 358 358 357 354 352 351 351 350 348 345 342 341 342 344 344 340 333 326 321
254 256 257 257 258 257 256 255 256 259 262 265 267 270 273 274 275 277 278 279 279 279 279 279 280 283 286 290 293 295 300 306 312 315 319 323 326 328 331 333 336 337 338 338 340 341 344 348 351 353 354 354 353 352 351 349 350 356 3 8 8 2 357 356 357 358 358 358 358 357 355 353 352 351 350 349 346 344 343 345 348 349 347 344 343
252 252 251 251 250 249 248 249 252 256 260 262 264 267 270 272 274 275 276 276 277 278 279 279 279 278 278 281 284 287 291 297 302 307 311 314 317 320 322 325 328 329 330 331 333 335 338 341 344 346 349 350 350 351 349 347 346 349 355 3 6 3 358 355 354 354 355 356 357 358 357 355 354 353 352 351 350 348 347 349 351 354 355 356 357
247 246 245 244 243 242 243 246 250 254 256 258 261 264 268 271 273 274 274 275 275 276 278 279 280 278 277 276 278 281 286 291 296 301 305 308 310 312 315 318 321 323 325 326 327 329 332 335 337 339 341 343 345 347 348 347 345 344 348 356 3 4 1 354 350 351 353 353 355 357 357 356 356 354 353 354 354 353 353 355 355 357 1 5 6
241 240 239 238 238 239 241 245 249 253 255 256 259 262 266 270 272 272 273 274 275 275 277 278 279 279 279 277 277 279 284 289 293 297 301 303 304 306 309 312 315 318 320 322 323 324 327 329 331 333 335 336 338 340 343 344 343 342 343 347 354 3 4 356 350 351 354 353 353 354 355 356 357 356 355 357 359 359 360 0 359 2 9 11 8
235 235 235 235 236 239 243 246 250 253 254 256 258 260 264 268 271 272 273 274 274 275 276 278 279 280 280 279 279 281 284 288 291 294 297 299 301 302 305 307 310 312 314 316 318 320 321 323 325 327 329 330 331 333 336 339 338 338 339 341 345 359 5 358 351 353 357 355 352 352 353 354 356 357 356 358 1 4 6 7 7 10 13 11 4
232 232 233 235 237 240 244 248 251 253 254 256 258 260 263 266 268 271 272 273 273 274 276 278 280 281 280 280 281 282 285 287 290 292 294 295 297 299 300 302 305 306 308 309 312 314 316 318 319 321 323 325 326 327 330 332 332 334 337 337 338 350 2 359 351 352 356 356 353 353 352 352 354 356 357 358 1 5 9 11 13 15 14 10 6
231 232 234 238 240 243 246 248 250 252 254 256 259 262 264 266 268 269 270 272 272 273 275 277 279 280 280 280 281 283 285 287 289 290 291 293 294 295 297 299 301 302 303 304 306 308 310 312 313 315 317 319 321 322 324 327 327 329 332 334 331 336 351 357 350 346 348 352 353 353 352 351 352 355 357 359 1 4 7 9 12 14 12 10 9
234 235 238 241 242 244 247 249 251 253 255 258 261 263 265 267 268 269 270 270 271 272 274 276 278 279 280 281 282 283 285 287 289 289 291 292 292 294 295 297 298 299 300 301 303 304 305 306 308 310 311 313 315 317 319 321 323 325 328 330 328 328 337 351 351 342 340 344 348 350 350 351 352 352 354 358 1 5 7 8 8 8 8 8 8
238 239 241 243 244 246 248 250 252 255 257 259 263 265 266 268 269 269 269 270 271 271 272 273 275 278 280 281 283 284 286 287 289 290 291 292 293 295 296 298 299 299 300 301 302 304 304 305 305 307 308 309 311 313 314 316 319 321 324 326 326 325 329 343 354 347 338 336 340 344 347 350 352 352 353 356 360 4 8 9 9 10 10 10 11